Weather History for KMOD - May, 2014

Change the Weather History Date:

Saturday, May 17, 2014

  Actual Average Record
Temperature  
Mean Temperature 70 °F -  
Max Temperature 85 °F 83 °F 107 °F (2009)
Min Temperature 54 °F 55 °F 43 °F (1943)
Degree Days  
Heating Degree Days 0 1  
Month to date heating degree days 9 24  
Since 1 July heating degree days 1966 2158  
Cooling Degree Days 5 5  
Month to date cooling degree days 90 68  
Year to date cooling degree days 151 112  
Growing Degree Days 20 (Base 50)    
Moisture  
Dew Point 40 °F    
Average Humidity 40    
Maximum Humidity 66    
Minimum Humidity 14    
Precipitation  
Precipitation 0.00 in 0.02 in 0.09 in (1994)
Month to date precipitation 0.01 0.40  
Year to date precipitation 5.51 8.40  
Since 1 July precipitation 7.00  
Snow  
Snow 0.00 in - - ()
Month to date snowfall 0.0  
Since 1 July snowfall 0.0  
Snow Depth -    
Sea Level Pressure  
Sea Level Pressure 29.91 in    
Wind  
Wind Speed 8 mph (NNW)    
Max Wind Speed 21 mph    
Max Gust Speed 26 mph    
Visibility 10 miles    
Events      
T = Trace of Precipitation, MM = Missing Value Source: NWS Daily Summary

Daily Weather History Graph

Daily Weather History Graph

Search for Another Location

Airport or City:

Trip Planner

Search our weather history database for the weather conditions in past years. The results will help you decide how hot, cold, wet, or windy it might be!

Date:

Astronomy

May. 17, 2014 Rise Set
Actual Time 5:52 AM PDT 8:08 PM PDT
Civil Twilight 5:23 AM PDT 8:37 PM PDT
Nautical Twilight 4:46 AM PDT 9:14 PM PDT
Astronomical Twilight 4:07 AM PDT 9:53 PM PDT
Moon 11:13 PM PDT (5/17) 8:40 AM PDT (5/17)
Length of Visible Light 15h 14m
Length of Day
14h 15m
Waning Gibbous, 88% of the Moon is Illuminated
May 17
Waning Gibbous
May 21
Last Quarter
May 28
New
Jun 5
First Quarter
Jun 12
Full

Hourly Weather History & Observations

Time (PDT) Temp. Dew Point Humidity Pressure Visibility Wind Dir Wind Speed Gust Speed Precip Events Conditions
12:53 AM 66.9 °F 34.0 °F 30% 29.93 in 10.0 mi NW 8.1 mph - N/A   Clear
1:53 AM 66.0 °F 32.0 °F 28% 29.91 in 10.0 mi North 6.9 mph - N/A   Clear
2:53 AM 62.1 °F 39.9 °F 44% 29.92 in 10.0 mi North - - N/A   Clear
3:53 AM 60.1 °F 44.1 °F 55% 29.92 in 10.0 mi NW 9.2 mph - N/A   Clear
4:53 AM 60.1 °F 44.1 °F 55% 29.92 in 10.0 mi Calm Calm - N/A   Clear
5:53 AM 55.9 °F 44.1 °F 64% 29.92 in 10.0 mi Calm Calm - N/A   Clear
6:53 AM 59.0 °F 46.0 °F 62% 29.93 in 10.0 mi NNE 3.5 mph - N/A   Clear
7:53 AM 62.1 °F 46.9 °F 58% 29.94 in 10.0 mi NE 3.5 mph - N/A   Clear
8:53 AM 66.0 °F 46.0 °F 48% 29.94 in 10.0 mi NNE 3.5 mph - N/A   Clear
9:53 AM 71.1 °F 43.0 °F 36% 29.94 in 10.0 mi Calm Calm - N/A   Clear
10:53 AM 77.0 °F 41.0 °F 28% 29.93 in 10.0 mi North 6.9 mph - N/A   Clear
11:53 AM 80.1 °F 39.0 °F 23% 29.93 in 10.0 mi WNW 12.7 mph - N/A   Clear
12:53 PM 81.0 °F 39.9 °F 23% 29.93 in 10.0 mi NNW 11.5 mph - N/A   Clear
1:53 PM 84.0 °F 37.0 °F 19% 29.91 in 10.0 mi NNW 15.0 mph 20.7 mph N/A   Clear
2:53 PM 84.0 °F 30.9 °F 15% 29.90 in 10.0 mi NW 19.6 mph - N/A   Clear
3:53 PM 82.0 °F 33.1 °F 17% 29.88 in 10.0 mi NW 17.3 mph - N/A   Clear
4:53 PM 82.9 °F 34.0 °F 17% 29.87 in 10.0 mi NNW 17.3 mph 24.2 mph N/A   Clear
5:53 PM 80.1 °F 39.9 °F 24% 29.86 in 10.0 mi NNW 13.8 mph - N/A   Clear
7:53 PM 73.9 °F 42.1 °F 32% 29.87 in 10.0 mi NW 11.5 mph - N/A   Clear
8:53 PM 72.0 °F 42.1 °F 34% 29.88 in 10.0 mi NNW 9.2 mph - N/A   Clear
9:53 PM 69.1 °F 42.1 °F 38% 29.89 in 10.0 mi North 9.2 mph - N/A   Clear
10:53 PM 66.9 °F 42.1 °F 40% 29.90 in 10.0 mi North 9.2 mph - N/A   Clear
11:53 PM 66.0 °F 42.1 °F 42% 29.91 in 10.0 mi North 11.5 mph - N/A   Clear